COSMOS 2251 DEB, 35439

Orbit data source: Space-Track

COSMOS 2251 DEB, 35439 is space debris in LEO originally from a launch on Wed, 16 Jun 1993 UTC launched from the Plesetsk Missile And Space Complex (PKMTR). The debris from Iridium 33, an American commercial communications satellite, has been tracked extensively since its accidental collision with the defunct Russian satellite Cosmos 2251 in 2009. This event, occurring at high speed in low Earth orbit (LEO), generated thousands of pieces of space debris, significantly increasing the risk of further collisions. The Iridium 33 debris cloud has impacted space traffic management and orbital debris mitigation strategies, making it a subject of ongoing study in space situational awareness.

Loading next visibility...
Identifier
35439, 1993-036AKH
Orbit
LEO
Country
Flag of CISCIS
Related business
Manufacturer
Unknown
Mission
Spacecraft
Bus & Motor
Unknown
Mass
Unknown
Launch date (UTC)
1993-06-16 (33 years ago)
Launch vehicle
Unknown
Launch site
Plesetsk Missile And Space Complex (PKMTR)
Object type
Payload
Rocket body
Debris
Shape & HBR
Unknown shape, 0.1 m
Radar Cross Section
Medium (>0.1 m² and <1 m²)

Expand to show TLE details & history
Last TLE update: 20 hours ago

TLE from 20 hours ago
0 COSMOS 2251 DEB
1 35439U 93036AKH 26264.96318753  .00001082  00000-0  66105-3 0  9999
2 35439  74.0206   8.9041 0237515 114.4715 248.1388 13.93972544879064
Epoch: 2026-09-21T23:06Z
TLE epoch observation values (Epoch: 2026-09-21T23:06:59.402Z)
Latitude
Longitude
21.32111°
Altitude
985.311 km
Speed
7.325 km/s
True Right ascension
00h 35m 36s
True Declination
0° 00' 00"
Sunlit
Object was in full shadow at epoch
Visualization orbit readout
Latitude
Unknown
Longitude
Unknown
Altitude
Unknown
Speed
Unknown
Apparent Right ascension
Unknown
Apparent Declination
Unknown
Sunlit
N/A
Visualization observer readout
Local Sidereal Time
12:23:49
Azimuth
Unknown
Elevation
Unknown
Doppler factor
Unknown
Orbital elements
Apogee altitude
1,085.574 km
Perigee altitude
739.251 km
Semi-major axis
7,290.549 km
Eccentricity
0.02375
Inclination
74.0206°
RAAN
8.9041°
Arg. of periapsis
114.4715°
True anomaly
245.64122°
Mean anomaly
248.1388°
Eccentric anomaly
246.88717°
Mean motion
3.48661 °/min
Orbital period
103.25 mins
BSTAR
0.00066105
Loading maneuver chart data...
Computing Atmospheric mass density...

Documentation

Showing up to 5 results
|